Volver al catálogo

STARLINK-32129

ActivoComunicacionesVLEO
NORAD 60157·PAYLOAD·🇺🇸 United States

Lanzado Jun 27, 2024 desde Cape Canaveral Space Force Station

Loading…

Próximos Pases (próximas 24 horas)

TLE

ActualizadoSource: CelesTrak SupGP

Época: Sep 14, 2026, 20:37 UTC

1 60157C 24120Y   26257.85951389 -.00036887  00000+0 -10893-2 0  2571
2 60157  53.1579 157.9903 0001289  88.1533 317.3001 15.34424155    13

Sigue STARLINK-32129 en tiempo real con AllMySat

Download on the App Store